Location: Newark
(7.0858°N, 171.3717°E)
Time: 20:59:52
(UTC+00:00)

Vanguard 2 - Pass Details

Date: 30 November 2020
Orbit: 553 x 2937 km, 32.9° (Epoch: 17 January)

Event Time Altitude Azimuth Distance (km) Brightness Sun altitude
Rises 13:49:25 0° 209° (SSW) 6,688 12.4 -64.6°
Reaches altitude 10° 13:58:14 10° 186° (S) 5,765 12.1 -62.8°
Maximum altitude 14:05:26 13° 161° (SSE) 5,361 12.0 -61.3°
Drops below altitude 10° 14:12:12 10° 136° (SE) 5,400 12.1 -59.9°
Sets 14:19:38 0° 113° (ESE) 5,964 12.5 -58.4°
